Location: Kalberh�ni
(46.4610°N, 7.2453°E)
Time: 07:26:23
(UTC+00:00)

Cosmos 1606 Rocket - Pass Details

Date: 25 October 2021
Orbit: 601 x 633 km, 82.5° (Epoch: 30 November)

Event Time Altitude Azimuth Distance (km) Brightness Sun altitude
Rises 05:00:43 0° 358° (N) 2,909 6.9 -11.3°
Reaches altitude 10° 05:03:08 10° 7° (N) 1,993 6.2 -10.8°
Maximum altitude 05:07:11 35° 74° (ENE) 998 5.3 -10.1°
Drops below altitude 10° 05:11:11 10° 141° (SE) 1,960 6.9 -9.5°
Sets 05:13:32 0° 150° (SSE) 2,855 7.6 -9.1°
